Location: St Paul
(33.9360°N, 83.4200°W)
Time: 01:36:55
(UTC-05:00)

Cosmos 923 Rocket - Pass Details

Date: 06 October 2017
Orbit: 759 x 785 km, 74.0° (Epoch: 14 December)

Event Time Altitude Azimuth Distance (km) Brightness Sun altitude
Rises 19:44:16 0° 180° (S) 3,241 7.3 -7.8°
Reaches altitude 10° 19:46:43 10° 174° (S) 2,321 6.5 -8.3°
Maximum altitude 19:51:44 46° 102° (ESE) 1,038 4.3 -9.3°
Drops below altitude 10° 19:56:49 10° 30° (NNE) 2,345 6.2 -10.4°
Sets 19:59:17 0° 25° (NNE) 3,278 7.0 -10.9°
